sat.trackr.live / text

‹ back to catalog

KUIPER-00430

NORAD 68935 · 2026-098S

PAYLOAD ACTIVE UNKNOWN

§ Identity

Operator
Country
US
Launch date
2026-04-30
Launch site
FRGUI
Launch vehicle
Mass (kg)
RCS (m²)

External: N2YO · Heavens-Above · Gunter

§ Orbital elements

Epoch: 2026-09-19T22:42:00.987264Z

Period
97.30 min
Inclination
51.9022°
Eccentricity
0.0000117
Mean motion
14.79932015 rev/d
Perigee alt
629.5 km
Apogee alt
629.6 km
Semi-major
7,007.7 km
B*
2.0415e-4
RAAN
1.5385°
Arg perigee
108.4655°
Mean anomaly
251.6320°
Rev number
2,148

§ Raw data

KUIPER-004301 68935U 26098S   26262.94584476  .00001336  00000+0  20415-3 0  99982 68935  51.9022   1.5385 0000117 108.4655 251.6320 14.79932015 21487

JSON: /api/v1/satellites/68935 · /tle

For live sub-satellite position, see the globe view (requires WebGL).

§ Visibility from observer

Set your observer location to see the next 7 days of passes ≥ 10°. The values pass through the URL so the page stays shareable.

No JS? Fill the form by hand. The geolocation button needs JavaScript.